, AZ

(GMT )
Fort Huachuca

Weather History for KALK - May, 2013

Change the Weather History Date:

Friday, May 17, 2013

  Actual Average Record
Temperature  
Mean Temperature 70 °F -  
Max Temperature 84 °F - - ()
Min Temperature 57 °F - - ()
Cooling Degree Days 6    
Growing Degree Days 20 (Base 50)    
Moisture  
Dew Point 20 °F    
Average Humidity 16    
Maximum Humidity 30    
Minimum Humidity 5    
Precipitation  
Precipitation 0.00 in - - ()
Sea Level Pressure  
Sea Level Pressure 29.80 in    
Wind  
Wind Speed 10 mph (SW)    
Max Wind Speed 18 mph    
Max Gust Speed 31 mph    
Visibility 10 miles    
Events      
Averages and records for this station are not official NWS values.
T = Trace of Precipitation, MM = Missing Value Source: NWS Daily Summary

Daily Weather History Graph

Daily Weather History Graph

Search for Another Location

Airport or City:

Trip Planner

Search our weather history database for the weather conditions in past years. The results will help you decide how hot, cold, wet, or windy it might be!

Date:

Astronomy

May. 17, 2013 Rise Set
Actual Time 5:23 AM MST 7:12 PM MST
Civil Twilight 4:56 AM MST 7:39 PM MST
Nautical Twilight 4:24 AM MST 8:12 PM MST
Astronomical Twilight 3:50 AM MST 8:46 PM MST
Moon 11:48 AM MST (5/17) 12:16 AM MST (5/17)
Length of Visible Light 14h 42m
Length of Day
13h 49m
Waxing Crescent, 46% of the Moon is Illuminated
May 17
Waxing Crescent
May 17
First Quarter
May 24
Full
May 31
Last Quarter
Jun 8
New

Hourly Weather History & Observations

Time (MST) Temp. Dew Point Humidity Pressure Visibility Wind Dir Wind Speed Gust Speed Precip Events Conditions
12:56 AM 64.9 °F 27.0 °F 24% 29.78 in 10.0 mi WSW 15.0 mph - N/A   Clear
1:56 AM 59.0 °F 27.0 °F 29% 29.79 in 10.0 mi SW 3.5 mph - N/A   Clear
2:56 AM 60.8 °F 26.6 °F 27% 30.05 in 10.0 mi SW 4.6 mph - N/A   Clear
3:56 AM 57.9 °F 26.1 °F 30% 29.79 in 10.0 mi Calm Calm - N/A   Clear
4:56 AM 64.0 °F 21.0 °F 19% 29.78 in 10.0 mi Calm Calm - N/A   Clear
5:56 AM 59.0 °F 24.1 °F 26% 29.81 in 10.0 mi WNW 6.9 mph - N/A   Clear
6:56 AM 66.9 °F 24.1 °F 20% 29.80 in 10.0 mi Variable 3.5 mph - N/A   Clear
7:56 AM 72.0 °F 23.0 °F 16% 29.79 in 10.0 mi ENE 6.9 mph - N/A   Unknown
8:56 AM 75.0 °F 16.0 °F 11% 29.81 in 10.0 mi SSW 13.8 mph 20.7 mph N/A   Clear
9:56 AM 77.0 °F 12.0 °F 8% 29.82 in 10.0 mi SSW 9.2 mph 26.5 mph N/A   Clear
10:56 AM 79.0 °F 14.0 °F 9% 29.81 in 10.0 mi SW 12.7 mph 25.3 mph N/A   Clear
11:56 AM 81.0 °F 5.0 °F 5% 29.80 in 10.0 mi SW 16.1 mph 31.1 mph N/A   Clear
12:56 PM 82.0 °F 6.1 °F 6% 29.78 in 10.0 mi SW 18.4 mph 26.5 mph N/A   Clear
1:56 PM 84.0 °F 12.9 °F 7% 29.78 in 10.0 mi SSW 15.0 mph 24.2 mph N/A   Clear
2:56 PM 82.9 °F 16.0 °F 8% 29.76 in 10.0 mi WSW 16.1 mph 25.3 mph N/A   Clear
3:56 PM 82.9 °F 21.0 °F 10% 29.75 in 10.0 mi WSW 17.3 mph 31.1 mph N/A   Clear
4:56 PM 81.0 °F 17.1 °F 9% 29.75 in 10.0 mi West 17.3 mph 24.2 mph N/A   Unknown
5:56 PM 79.0 °F 18.0 °F 10% 29.76 in 10.0 mi SW 17.3 mph 21.9 mph N/A   Clear
6:56 PM 75.0 °F 19.0 °F 12% 29.77 in 10.0 mi SW 9.2 mph - N/A   Clear
7:56 PM 72.0 °F 21.9 °F 15% 29.79 in 10.0 mi SW 6.9 mph - N/A   Clear
8:56 PM 71.1 °F 23.0 °F 16% 29.80 in 10.0 mi WSW 9.2 mph - N/A   Clear
9:56 PM 69.1 °F 23.0 °F 18% 29.82 in 10.0 mi WSW 10.4 mph - N/A   Clear
10:56 PM 66.0 °F 25.0 °F 21% 29.82 in 10.0 mi West 8.1 mph - N/A   Clear
11:56 PM 64.9 °F 27.0 °F 24% 29.82 in 10.0 mi WNW 10.4 mph - N/A   Clear